| time (UTC) | temp F | wind direction | speed knots | gust knots | rain 1hr in | rain 24hr in | rain mn in | humidity % | barometer mb |
| 20260504150711 | 68 | 234 | 0.9 | 1.7 | 0.00 | 0.00 | 0.00 | 59 | 1015.4 |
| 20260504150208 | 67 | 259 | 1.7 | 2.6 | 0.00 | 0.00 | 0.00 | 62 | 1015.4 |
| 20260504141136 | 66 | 247 | 4.3 | 5.2 | 0.00 | 0.00 | 0.00 | 61 | 1015.3 |
| 20260504140633 | 65 | 238 | 1.7 | 2.6 | 0.00 | 0.00 | 0.00 | 63 | 1015.5 |
| 20260504140129 | 65 | 286 | 4.3 | 6.1 | 0.00 | 0.00 | 0.00 | 61 | 1015.6 |
| 20260504130557 | 61 | 241 | 2.6 | 2.6 | 0.00 | 0.00 | 0.00 | 71 | 1016.0 |
| 20260504110444 | 52 | 268 | 0.0 | 0.0 | 0.00 | 0.00 | 0.00 | 84 | 1016.9 |
| 20260504100401 | 48 | 265 | 0.0 | 0.0 | 0.00 | 0.00 | 0.00 | 83 | 1016.9 |
| 20260504081754 | 47 | 267 | 0.0 | 0.0 | 0.00 | 0.00 | 0.00 | 78 | 1017.0 |
| 20260504081250 | 47 | 254 | 0.9 | 0.9 | 0.00 | 0.00 | 0.00 | 77 | 1016.7 |
| 20260504080747 | 48 | 262 | 0.0 | 0.9 | 0.00 | 0.00 | 0.00 | 76 | 1016.9 |
| 20260504080243 | 48 | 271 | 0.0 | 0.0 | 0.00 | 0.00 | 0.00 | 76 | 1016.8 |
| 20260504070211 | 45 | 268 | 0.0 | 0.0 | 0.00 | 0.00 | 0.00 | 82 | 1016.5 |
| 20260504010829 | 46 | 268 | 0.0 | 0.0 | 0.00 | 0.00 | 0.00 | 76 | 1015.1 |
| 20260504010324 | 46 | 269 | 0.0 | 0.0 | 0.00 | 0.00 | 0.00 | 75 | 1015.1 |
| 20260504005821 | 47 | 269 | 0.0 | 0.0 | 0.00 | 0.00 | 0.00 | 75 | 1015.2 |
| 20260504005318 | 47 | 269 | 0.0 | 0.0 | 0.00 | 0.00 | 0.00 | 74 | 1015.0 |
| 20260504004816 | 47 | 269 | 0.0 | 0.0 | 0.00 | 0.00 | 0.00 | 72 | 1014.7 |
| 20260504004313 | 47 | 269 | 0.0 | 0.0 | 0.00 | 0.00 | 0.00 | 70 | 1014.8 |
| 20260504003809 | 48 | 269 | 0.0 | 0.0 | 0.00 | 0.00 | 0.00 | 69 | 1014.9 |
| 20260504003307 | 48 | 269 | 0.0 | 0.0 | 0.00 | 0.00 | 0.00 | 68 | 1014.5 |
| 20260504002803 | 48 | 268 | 0.0 | 0.0 | 0.00 | 0.00 | 0.00 | 67 | 1014.7 |
| 20260504002300 | 49 | 268 | 0.0 | 0.0 | 0.00 | 0.00 | 0.00 | 65 | 1014.4 |
| 20260504001758 | 50 | 268 | 0.0 | 0.0 | 0.00 | 0.00 | 0.00 | 64 | 1014.4 |
| 20260504001255 | 50 | 268 | 0.0 | 0.0 | 0.00 | 0.00 | 0.00 | 62 | 1014.4 |
| 20260504000751 | 51 | 268 | 0.0 | 0.0 | 0.00 | 0.00 | 0.00 | 60 | 1014.4 |
| 20260504000248 | 52 | 268 | 0.0 | 0.0 | 0.00 | 0.00 | 0.00 | 59 | 1014.3 |
| 20260503235746 | 52 | 268 | 0.0 | 0.0 | 0.00 | 0.00 | 0.00 | 56 | 1014.3 |
| 20260503235243 | 53 | 268 | 0.0 | 0.0 | 0.00 | 0.00 | 0.00 | 54 | 1014.3 |
| 20260503234741 | 54 | 267 | 0.0 | 0.0 | 0.00 | 0.00 | 0.00 | 52 | 1014.3 |
| 20260503234239 | 54 | 280 | 0.0 | 0.0 | 0.00 | 0.00 | 0.00 | 52 | 1014.4 |
| 20260503233736 | 55 | 272 | 0.0 | 0.0 | 0.00 | 0.00 | 0.00 | 50 | 1014.5 |
| 20260503233231 | 56 | 267 | 0.0 | 0.0 | 0.00 | 0.00 | 0.00 | 49 | 1014.2 |
| 20260503232728 | 56 | 263 | 0.0 | 0.0 | 0.00 | 0.00 | 0.00 | 48 | 1014.2 |
| 20260503232226 | 56 | 267 | 0.0 | 0.9 | 0.00 | 0.00 | 0.00 | 46 | 1014.0 |
| 20260503231724 | 57 | 272 | 0.0 | 0.9 | 0.00 | 0.00 | 0.00 | 46 | 1013.9 |
| 20260503231220 | 57 | 265 | 0.9 | 0.9 | 0.00 | 0.00 | 0.00 | 43 | 1014.0 |
| 20260503230716 | 57 | 261 | 0.0 | 0.9 | 0.00 | 0.00 | 0.00 | 46 | 1014.1 |
| 20260503230214 | 57 | 260 | 0.9 | 0.9 | 0.00 | 0.00 | 0.00 | 43 | 1013.9 |
| 20260503225711 | 58 | 279 | 0.9 | 0.9 | 0.00 | 0.00 | 0.00 | 43 | 1013.9 |
| 20260503225211 | 58 | 270 | 0.0 | 0.0 | 0.00 | 0.00 | 0.00 | 41 | 1013.9 |
| 20260503224709 | 58 | 281 | 0.9 | 0.9 | 0.00 | 0.00 | 0.00 | 42 | 1013.8 |
| 20260503224207 | 58 | 272 | 0.9 | 1.7 | 0.00 | 0.00 | 0.00 | 42 | 1013.8 |
| 20260503223704 | 58 | 258 | 0.0 | 0.0 | 0.00 | 0.00 | 0.00 | 42 | 1013.9 |
| 20260503223201 | 58 | 340 | 1.7 | 2.6 | 0.00 | 0.00 | 0.00 | 41 | 1013.9 |
| 20260503222658 | 59 | 329 | 0.9 | 1.7 | 0.00 | 0.00 | 0.00 | 42 | 1013.9 |
| 20260503222155 | 59 | 268 | 2.6 | 4.3 | 0.00 | 0.00 | 0.00 | 39 | 1013.8 |
| 20260503221654 | 59 | 269 | 0.0 | 0.9 | 0.00 | 0.00 | 0.00 | 39 | 1013.8 |
| 20260503221151 | 60 | 197 | 2.6 | 2.6 | 0.00 | 0.00 | 0.00 | 40 | 1013.7 |
| 20260503220647 | 61 | 246 | 0.0 | 0.9 | 0.00 | 0.00 | 0.00 | 40 | 1013.6 |
| 20260503220144 | 61 | 257 | 1.7 | 1.7 | 0.00 | 0.00 | 0.00 | 38 | 1013.7 |
| 20260503215641 | 60 | 270 | 2.6 | 2.6 | 0.00 | 0.00 | 0.00 | 38 | 1013.7 |
| 20260503215137 | 60 | 285 | 1.7 | 2.6 | 0.00 | 0.00 | 0.00 | 38 | 1013.7 |
| 20260503214637 | 60 | 337 | 2.6 | 5.2 | 0.00 | 0.00 | 0.00 | 37 | 1013.9 |
| 20260503214132 | 60 | 344 | 0.9 | 1.7 | 0.00 | 0.00 | 0.00 | 38 | 1013.6 |
| 20260503213632 | 60 | 316 | 2.6 | 4.3 | 0.00 | 0.00 | 0.00 | 37 | 1013.7 |
| 20260503213128 | 61 | 255 | 1.7 | 2.6 | 0.00 | 0.00 | 0.00 | 36 | 1013.8 |
| 20260503212625 | 61 | 269 | 0.0 | 0.9 | 0.00 | 0.00 | 0.00 | 38 | 1013.6 |
| 20260503212123 | 61 | 297 | 1.7 | 1.7 | 0.00 | 0.00 | 0.00 | 38 | 1013.4 |
| 20260503211620 | 61 | 18 | 1.7 | 2.6 | 0.00 | 0.00 | 0.00 | 36 | 1013.5 |
| 20260503211115 | 60 | 29 | 4.3 | 6.1 | 0.00 | 0.00 | 0.00 | 37 | 1013.3 |
| 20260503210612 | 61 | 201 | 1.7 | 2.6 | 0.00 | 0.00 | 0.00 | 37 | 1013.6 |
| 20260503210108 | 61 | 230 | 4.3 | 7.0 | 0.00 | 0.00 | 0.00 | 37 | 1013.4 |
| 20260503205559 | 61 | 266 | 2.6 | 4.3 | 0.00 | 0.00 | 0.00 | 36 | 1013.4 |
| 20260503205056 | 62 | 3 | 1.7 | 1.7 | 0.00 | 0.00 | 0.00 | 38 | 1013.5 |
| 20260503204552 | 61 | 296 | 1.7 | 1.7 | 0.00 | 0.00 | 0.00 | 38 | 1013.4 |
| 20260503204049 | 61 | 254 | 1.7 | 2.6 | 0.00 | 0.00 | 0.00 | 36 | 1013.7 |
| 20260503203546 | 61 | 284 | 0.9 | 0.9 | 0.00 | 0.00 | 0.00 | 37 | 1013.3 |
| 20260503203043 | 61 | 24 | 3.5 | 4.3 | 0.00 | 0.00 | 0.00 | 36 | 1013.6 |
| 20260503202541 | 61 | 243 | 2.6 | 4.3 | 0.00 | 0.00 | 0.00 | 37 | 1013.7 |
| 20260503202034 | 61 | 78 | 3.5 | 4.3 | 0.00 | 0.00 | 0.00 | 39 | 1013.5 |
| 20260503201532 | 60 | 249 | 0.9 | 1.7 | 0.00 | 0.00 | 0.00 | 38 | 1013.6 |
| 20260503201029 | 60 | 30 | 4.3 | 5.2 | 0.00 | 0.00 | 0.00 | 36 | 1013.8 |
| 20260503200525 | 60 | 291 | 3.5 | 4.3 | 0.00 | 0.00 | 0.00 | 38 | 1013.6 |
| 20260503200022 | 60 | 258 | 2.6 | 2.6 | 0.00 | 0.00 | 0.00 | 37 | 1013.6 |
| 20260503195519 | 60 | 29 | 4.3 | 6.1 | 0.00 | 0.00 | 0.00 | 37 | 1013.7 |
| 20260503195015 | 60 | 259 | 0.9 | 1.7 | 0.00 | 0.00 | 0.00 | 41 | 1013.6 |
| 20260503194513 | 60 | 217 | 1.7 | 1.7 | 0.00 | 0.00 | 0.00 | 41 | 1013.5 |
| 20260503194012 | 59 | 275 | 1.7 | 2.6 | 0.00 | 0.00 | 0.00 | 39 | 1013.7 |
| 20260503193509 | 60 | 294 | 2.6 | 5.2 | 0.00 | 0.00 | 0.00 | 38 | 1013.7 |
| 20260503193004 | 60 | 301 | 0.9 | 1.7 | 0.00 | 0.00 | 0.00 | 40 | 1013.6 |
| 20260503192501 | 60 | 260 | 2.6 | 5.2 | 0.00 | 0.00 | 0.00 | 38 | 1013.8 |
| 20260503191956 | 59 | 287 | 0.9 | 0.9 | 0.00 | 0.00 | 0.00 | 40 | 1013.8 |
| 20260503191454 | 60 | 169 | 0.9 | 1.7 | 0.00 | 0.00 | 0.00 | 43 | 1013.6 |
| 20260503190950 | 60 | 15 | 2.6 | 2.6 | 0.00 | 0.00 | 0.00 | 41 | 1014.0 |
| 20260503190448 | 60 | 201 | 2.6 | 4.3 | 0.00 | 0.00 | 0.00 | 41 | 1014.0 |
| 20260503185945 | 59 | 154 | 2.6 | 4.3 | 0.00 | 0.00 | 0.00 | 41 | 1014.1 |
| 20260503185441 | 60 | 27 | 2.6 | 2.6 | 0.00 | 0.00 | 0.00 | 40 | 1014.1 |
| 20260503184940 | 59 | 276 | 2.6 | 2.6 | 0.00 | 0.00 | 0.00 | 42 | 1014.2 |
| 20260503184437 | 60 | 242 | 4.3 | 6.1 | 0.00 | 0.00 | 0.00 | 46 | 1014.2 |
| 20260503183933 | 59 | 299 | 0.9 | 0.9 | 0.00 | 0.00 | 0.00 | 46 | 1014.2 |
| 20260503183430 | 59 | 242 | 2.6 | 5.2 | 0.00 | 0.00 | 0.00 | 41 | 1014.2 |
| 20260503182927 | 59 | 287 | 2.6 | 4.3 | 0.00 | 0.00 | 0.00 | 44 | 1014.1 |
| 20260503182426 | 59 | 282 | 2.6 | 2.6 | 0.00 | 0.00 | 0.00 | 44 | 1014.4 |
| 20260503181923 | 59 | 248 | 0.9 | 0.9 | 0.00 | 0.00 | 0.00 | 46 | 1014.3 |
| 20260503181420 | 59 | 279 | 2.6 | 2.6 | 0.00 | 0.00 | 0.00 | 44 | 1014.3 |
| 20260503180916 | 58 | 263 | 2.6 | 4.3 | 0.00 | 0.00 | 0.00 | 44 | 1014.4 |
| 20260503180415 | 57 | 283 | 1.7 | 1.7 | 0.00 | 0.00 | 0.00 | 47 | 1014.2 |
| 20260503175911 | 57 | 266 | 0.9 | 1.7 | 0.00 | 0.00 | 0.00 | 46 | 1014.4 |
| 20260503175409 | 58 | 313 | 2.6 | 2.6 | 0.00 | 0.00 | 0.00 | 44 | 1014.3 |
| 20260503174904 | 58 | 13 | 3.5 | 4.3 | 0.00 | 0.00 | 0.00 | 42 | 1014.3 |
| 20260503174403 | 58 | 230 | 1.7 | 4.3 | 0.00 | 0.00 | 0.00 | 45 | 1014.3 |
| 20260503173902 | 57 | 256 | 2.6 | 2.6 | 0.00 | 0.00 | 0.00 | 43 | 1014.3 |
| 20260503173359 | 58 | 259 | 3.5 | 4.3 | 0.00 | 0.00 | 0.00 | 44 | 1014.3 |
| 20260503172856 | 57 | 298 | 1.7 | 2.6 | 0.00 | 0.00 | 0.00 | 42 | 1014.2 |
| 20260503172353 | 57 | 262 | 1.7 | 2.6 | 0.00 | 0.00 | 0.00 | 43 | 1014.5 |
| 20260503171849 | 57 | 298 | 4.3 | 6.1 | 0.00 | 0.00 | 0.00 | 45 | 1014.5 |
| 20260503171346 | 56 | 267 | 1.7 | 2.6 | 0.00 | 0.00 | 0.00 | 45 | 1014.4 |
| 20260503170844 | 57 | 249 | 0.0 | 0.9 | 0.00 | 0.00 | 0.00 | 48 | 1014.4 |
| 20260503170340 | 59 | 54 | 1.7 | 1.7 | 0.00 | 0.00 | 0.00 | 49 | 1014.6 |